Preview of NWS' New Version of Forecast
This preview is not operational and should not be used for support decisions.

Regional Weather Roundup (RWR)

Issued by National Weather Service (NWS)

                            
000
ASUS43 KMKX 200100
RWRWI 

WISCONSIN REGIONAL WEATHER ROUNDUP
NATIONAL WEATHER SERVICE MILWAUKEE/SULLIVAN WI
800 PM CDT SUN MAY 19 2019

NOTE: "FAIR" INDICATES FEW OR NO CLOUDS BELOW 12,000 FEET WITH NO
SIGNIFICANT WEATHER AND/OR OBSTRUCTIONS TO VISIBILITY.

WIZ001-002-006>008-014>016-023>028-200200-
NORTHWEST WISCONSIN
  
CITY           SKY/WX    TMP DP  RH WIND       PRES   REMARKS
SUPERIOR ARPT  CLOUDY    38  36  92 CALM      29.97R                  
ASHLAND        LGT RAIN  42  32  67 N15G24    29.91R                  
HAYWARD        LGT RAIN  35  35 100 N9        29.90R FOG     WCI  28  
SIREN          LGT RAIN  34  34  99 N8        29.95R WCI  28          
CUMBERLAND     LGT RAIN  34  32  93 N14       29.88R WCI  24          
RICE LAKE      LGT RAIN  35  28  74 N12       29.89R WCI  27          
CHETEK         LGT RAIN  37  36  96 N9G18     29.87R WCI  30          
LADYSMITH      LGT RAIN  36  35  96 N13G18    29.85R WCI  27          
EAU CLAIRE     NOT AVBL                                               
MENOMONIE      CLOUDY    36  32  87 N12G21    29.86R WCI  27          
NEW RICHMOND   CLOUDY    37  33  84 N15G26    29.92R WCI  28          
OSCEOLA        CLOUDY    38  35  88 N13G22    29.95R WCI  30          
$$
 
WIZ003>005-009-010-017-018-200200-
NORTH CENTRAL WISCONSIN
  
CITY           SKY/WX    TMP DP  RH WIND       PRES   REMARKS
MANITOWISH WTR LGT RAIN  35  35 100 N9G17     29.79R WCI  28          
ARBOR VITAE    CLOUDY    37  35  93 N12G18    29.76R FOG     WCI  29  
WOODRUFF       CLOUDY    37  35  93 N12G18    29.76R FOG     WCI  29  
RHINELANDER    LGT RAIN  40  36  86 N7G18     29.75  FOG              
EAGLE RIVER    DRIZZLE   37  36  96 N10G21    29.75R WCI  30          
LAND O LAKES   LGT RAIN  37  36  96 N9G16     29.78R WCI  31          
PHILLIPS       LGT RAIN  35  35 100 N9G17     29.80R WCI  27          
TOMAHAWK       DRIZZLE   38  36  93 N6        29.77R WCI  33          
MEDFORD        DRIZZLE   38  37  94 N10       29.76R WCI  31          
MERRILL        DRIZZLE   40  39  99 N10       29.75R WCI  33          
$$
 
WIZ029-030-035-036-043>047-200200-
CENTRAL WISCONSIN
  
CITY           SKY/WX    TMP DP  RH WIND       PRES   REMARKS
WAUSAU         CLOUDY    41  40  96 N7        29.72R FOG              
MOSINEE        LGT RAIN  43  41  93 N10       29.74R                  
MARSHFIELD     CLOUDY    43  40  89 N13G21    29.73R                  
STEVENS POINT  CLOUDY    42  42 100 N7        29.72R                  
WAUPACA        CLOUDY    47  46  93 N6        29.71R                  
WAUTOMA        CLOUDY    47  45  93 NW8       29.71R                  
WISC RAPIDS    CLOUDY    46  42  86 NW9       29.73R                  
CAMP DOUGLAS   LGT RAIN  47  47 100 NW10      29.74R FOG              
$$
 
WIZ011>013-019>022-031-037>040-048>050-200200-
NORTHEAST WISCONSIN
  
CITY           SKY/WX    TMP DP  RH WIND       PRES   REMARKS
ANTIGO         RAIN      39  39 100 N9        29.71R WCI  33          
SHAWANO        CLOUDY    45  43  91 NW3       29.70R FOG              
OCONTO         CLOUDY    43  42  97 NW5       29.68R                  
STURGEON BAY   LGT RAIN  43  42  97 N14       29.65R FOG              
GREEN BAY      CLOUDY    46  43  89 NW10      29.68R                  
MANITOWOC      LGT RAIN  47  45  93 NW10      29.67R                  
APPLETON       DRIZZLE   45  45 100 N10       29.67R FOG              
CLINTONVILLE   CLOUDY    44  42  91 N6        29.71R FOG              
OSHKOSH        CLOUDY    48  46  93 NW9       29.68R FOG              
$$
 
WIZ032>034-041-042-053>061-200200-
SOUTHWEST WISCONSIN
  
CITY           SKY/WX    TMP DP  RH WIND       PRES   REMARKS
LA CROSSE      CLOUDY    46  39  76 NW15      29.80R                  
SPARTA         CLOUDY    42  42  98 NW10G17   29.77R FOG              
VIROQUA        CLOUDY    45  45 100 NW13      29.77R                  
BOSCOBEL       CLOUDY    52  42  69 W8        29.78R                  
PRAIRIE DU CHI CLOUDY    50  42  73 W15       29.79R                  
PLATTEVILLE    CLOUDY    52  47  81 W15       29.77R                  
$$

WIZ056-057-062-063-064-067-068-200200-
SOUTH CENTRAL WISCONSIN
  
CITY           SKY/WX    TMP DP  RH WIND       PRES   REMARKS
REEDSBURG      MOCLDY    49  46  89 W18G24    29.73R                  
BARABOO/DELLS  RAIN      50  44  80 NW13      29.72R                  
LONE ROCK      CLOUDY    52  43  71 W17G24    29.74R                  
MINERAL POINT  CLOUDY    52  46  82 W13G24    29.75R                  
MADISON        CLOUDY    54  43  66 W14G24    29.71R                  
MIDDLETON      CLOUDY    55  44  67 W17G29    29.72R                  
WATERTOWN      CLOUDY    55  46  71 W16G23    29.68R                  
MONROE         CLOUDY    55  45  69 W22       29.73R                  
JANESVILLE     CLOUDY    59  50  72 W10       29.71R                  
$$
 
WIZ051-052-058>065-066-070>072-200200-
SOUTHEAST WISCONSIN
  
CITY           SKY/WX    TMP DP  RH WIND       PRES   REMARKS
MILWAUKEE      CLOUDY    63  47  55 W16G29    29.67R                  
WAUKESHA       CLOUDY    55  46  71 W18G24    29.69R                  
MILWAUKEE/TIMM CLOUDY    57  43  58 W15       29.68R                  
RACINE         CLOUDY    63  51  65 W18G29    29.68R                  
KENOSHA        FAIR      62  53  72 W21G31    29.68R                  
FOND DU LAC    LGT RAIN  52  48  86 W13G22    29.67R                  
SHEBOYGAN      CLOUDY    53  48  83 W10G24    29.65R                  
WEST BEND      CLOUDY    54  45  71 W18G30    29.66R                  
JUNEAU         CLOUDY    53  45  75 W16G24    29.70R                  
$$

LSZ147-162-200200-
LAKE SUPERIOR
  
STATION/POSITION TIME  TEMP    WIND        PRES    WAVE
                       AIR SEA DIR/SP/G            HT/PER
                 (UTC) (F)     (DEG/KT/KT) (MB)    (FT/S)
W MID LAKE BUOY  2350   40 36   10/ 19/ 23 1011.2S   6/ 7
$$
 
LMZ867-665-643>646-200200-
LAKE MICHIGAN
  
STATION/POSITION TIME  TEMP    WIND        PRES    WAVE
                       AIR SEA DIR/SP/G            HT/PER
                 (UTC) (F)     (DEG/KT/KT) (MB)    (FT/S)
CHAMBERS ISLAND  0040          330/ 16/ 19 1002.7R
N MID LAKE BUOY  0040   41 37   10/ 16/ 19 1000.7R
NORTHPORT PIER   0040   42     330/  9/ 10 1002.7R
KEWAUNEE LAKESHO 0024   44      30/  2/  5 1002.8
SHEBOYGAN LAKESH 0000   54     280/ 12/ 17 1003.2R
MILWAUKEE LAKESH 0030   62     270/ 13/ 17   N/A
S MID LAKE BUOY  0040   45 39  240/ 10/ 10 1005.1R
KENOSHA   LAKESH 0000   67     260/ 18/ 26 1003.7
$$

TC  - TEMPERATURE IN CELSIUS
VSB - VISIBILITY IN STATUTE MILES
WCI - WIND CHILL INDEX
HX  - HEAT INDEX